N8XSF-1 Weather Reports


time (UTC)temp
C
wind
direction
speed
KPH
gust
KPH
rain 1hr
cm
rain 24hr
cm
rain mn
cm
humidity
%
barometer
mb
20260508195314 14 213 11.3 20.9 0.00 0.00 0.00 76 1007.1
20260508194835 14 192 9.7 20.9 0.00 0.00 0.00 75 1007.1
20260508194323 14 192 9.7 24.1 0.00 0.00 0.00 74 1007.1
20260508193853 15 185 16.1 24.1 0.00 0.00 0.00 73 1007.1
20260508193321 15 193 9.7 20.9 0.00 0.00 0.00 73 1007.1
20260508192817 15 197 9.7 19.3 0.00 0.00 0.00 73 1007.1
20260508192339 15 192 12.9 19.3 0.00 0.00 0.00 73 1007.1
20260508191828 15 178 11.3 24.1 0.00 0.00 0.00 71 1007.3
20260508191320 15 189 12.9 24.1 0.00 0.00 0.00 69 1007.3
20260508190829 15 173 11.3 24.1 0.00 0.00 0.00 65 1007.3
20260508190313 16 190 12.9 20.9 0.00 0.00 0.00 62 1007.4
20260508185831 16 213 11.3 19.3 0.00 0.00 0.00 61 1007.4
20260508185317 16 202 11.3 19.3 0.00 0.00 0.00 64 1007.4
20260508184827 16 165 9.7 19.3 0.00 0.00 0.00 61 1007.5
20260508184315 16 196 12.9 19.3 0.00 0.00 0.00 58 1007.5
20260508183836 16 149 11.3 19.3 0.00 0.00 0.00 58 1007.5
20260508183341 15 194 9.7 29.0 0.00 0.00 0.00 57 1007.7
20260508182828 15 203 12.9 17.7 0.00 0.00 0.00 62 1007.7
20260508182321 15 217 6.4 16.1 0.00 0.00 0.00 63 1007.7
20260508181827 15 163 8.0 16.1 0.00 0.00 0.00 64 1007.8
20260508181316 15 221 9.7 16.1 0.00 0.00 0.00 64 1007.8
20260508180822 15 216 6.4 17.7 0.00 0.00 0.00 67 1007.8
20260508180341 15 191 8.0 17.7 0.00 0.00 0.00 66 1007.8
20260508175833 15 192 6.4 16.1 0.00 0.00 0.00 65 1007.8
20260508175344 15 176 6.4 16.1 0.00 0.00 0.00 64 1007.8
20260508174814 15 223 8.0 19.3 0.00 0.00 0.00 66 1008.4
20260508174324 15 193 12.9 20.9 0.00 0.00 0.00 63 1008.4
20260508173818 15 163 8.0 24.1 0.00 0.00 0.00 64 1008.4
20260508173330 15 206 12.9 24.1 0.00 0.00 0.00 66 1008.3
20260508172819 15 175 6.4 11.3 0.00 0.00 0.00 66 1008.3
20260508172327 15 174 1.6 14.5 0.00 0.00 0.00 65 1008.3
20260508171819 15 197 3.2 14.5 0.00 0.00 0.00 64 1008.5
20260508171323 15 193 1.6 16.1 0.00 0.00 0.00 65 1008.5
20260508170848 15 196 9.7 14.5 0.00 0.00 0.00 65 1008.5
20260508170332 15 223 1.6 14.5 0.00 0.00 0.00 65 1008.6
20260508165842 15 205 8.0 14.5 0.00 0.00 0.00 66 1008.6
20260508165400 15 249 3.2 12.9 0.00 0.00 0.00 67 1008.6
20260508164826 15 225 8.0 12.9 0.00 0.00 0.00 68 1008.9
20260508164333 15 219 6.4 14.5 0.00 0.00 0.00 69 1008.9
20260508163816 14 230 1.6 17.7 0.00 0.00 0.00 69 1008.9
20260508163330 14 167 4.8 14.5 0.00 0.00 0.00 69 1009.3
20260508162816 14 222 0.0 16.1 0.00 0.00 0.00 70 1009.3
20260508162321 14 257 6.4 16.1 0.00 0.00 0.00 71 1009.3
20260508161837 13 204 8.0 16.1 0.00 0.00 0.00 71 1009.3
20260508161322 13 231 11.3 16.1 0.00 0.00 0.00 71 1009.3
20260508160832 13 219 3.2 12.9 0.00 0.00 0.00 72 1009.3
20260508160316 13 225 3.2 17.7 0.00 0.00 0.00 72 1009.5
20260508155826 13 212 9.7 17.7 0.00 0.00 0.00 73 1009.5
20260508155316 13 216 11.3 17.7 0.00 0.00 0.00 73 1009.5
20260508154825 13 218 4.8 11.3 0.00 0.00 0.00 72 1009.5
20260508154310 13 221 4.8 16.1 0.00 0.00 0.00 73 1009.5
20260508153823 13 259 11.3 17.7 0.00 0.00 0.00 72 1009.5
20260508153315 13 217 4.8 14.5 0.00 0.00 0.00 73 1009.4
20260508152823 13 217 8.0 14.5 0.00 0.00 0.00 73 1009.4
20260508152341 12 189 3.2 14.5 0.00 0.00 0.00 73 1009.4
20260508151830 12 190 4.8 14.5 0.00 0.00 0.00 74 1009.4
20260508151323 13 198 4.8 14.5 0.00 0.00 0.00 74 1009.4
20260508150832 12 227 9.7 14.5 0.00 0.00 0.00 73 1009.4
20260508150349 12 221 6.4 12.9 0.00 0.00 0.00 74 1009.5
20260508145817 12 225 0.0 9.7 0.00 0.00 0.00 73 1009.5
20260508145330 12 242 3.2 9.7 0.00 0.00 0.00 74 1009.5
20260508144819 12 247 0.0 8.0 0.00 0.00 0.00 74 1009.6
20260508144326 12 247 1.6 11.3 0.00 0.00 0.00 74 1009.6
20260508143816 12 247 4.8 16.1 0.00 0.00 0.00 73 1009.6
20260508143328 12 247 9.7 16.1 0.00 0.00 0.00 73 1009.4
20260508142848 12 244 0.0 0.0 0.00 0.00 0.00 75 1009.4
20260508142331 12 244 0.0 0.0 0.00 0.00 0.00 75 1009.4
20260508141826 12 244 0.0 0.0 0.00 0.00 0.00 75 1009.5
20260508141333 12 244 0.0 3.2 0.00 0.00 0.00 76 1009.5
20260508140821 11 244 0.0 6.4 0.00 0.00 0.00 76 1009.5
20260508140332 11 244 0.0 11.3 0.00 0.00 0.00 75 1009.4
20260508135822 11 244 1.6 11.3 0.00 0.00 0.00 75 1009.4
20260508135331 11 252 1.6 11.3 0.00 0.00 0.00 75 1009.4
20260508134814 11 252 0.0 6.4 0.00 0.00 0.00 76 1009.6
20260508134319 11 252 0.0 12.9 0.00 0.00 0.00 75 1009.6
20260508133900 11 252 4.8 12.9 0.00 0.00 0.00 75 1009.6
20260508133332 11 251 1.6 16.1 0.00 0.00 0.00 75 1009.6
20260508132817 11 251 6.4 16.1 0.00 0.00 0.00 75 1009.6
20260508132325 11 254 4.8 16.1 0.00 0.00 0.00 76 1009.6
20260508131830 11 252 4.8 16.1 0.00 0.00 0.00 77 1009.6
20260508131319 11 224 9.7 19.3 0.00 0.00 0.00 76 1009.6
20260508130824 11 238 6.4 12.9 0.00 0.00 0.00 77 1009.6
20260508130316 11 238 3.2 16.1 0.00 0.00 0.00 78 1009.7
20260508125824 10 255 4.8 16.1 0.00 0.00 0.00 78 1009.7
20260508125357 10 248 11.3 17.7 0.00 0.00 0.00 78 1009.7
20260508124831 10 247 14.5 19.3 0.00 0.00 0.00 78 1009.8
20260508124344 10 271 12.9 19.3 0.00 0.00 0.00 78 1009.8
20260508123848 10 250 9.7 17.7 0.00 0.00 0.00 79 1009.8
20260508123342 10 227 8.0 17.7 0.00 0.00 0.00 80 1009.8
20260508122829 10 259 6.4 20.9 0.00 0.00 0.00 80 1009.8
20260508122334 10 227 12.9 20.9 0.00 0.00 0.00 80 1009.8
20260508121822 9 238 11.3 19.3 0.00 0.00 0.00 80 1009.7
20260508121313 9 244 9.7 19.3 0.00 0.00 0.00 80 1009.7
20260508120825 9 244 9.7 19.3 0.00 0.00 0.00 81 1009.7
20260508120318 9 242 3.2 17.7 0.00 0.00 0.00 81 1009.5
20260508115825 8 257 11.3 17.7 0.00 0.00 0.00 81 1009.5
20260508115342 8 256 9.7 16.1 0.00 0.00 0.00 82 1009.5
20260508114831 8 222 1.6 12.9 0.00 0.00 0.00 82 1009.1
20260508114342 8 236 3.2 12.9 0.00 0.00 0.00 83 1009.1
20260508113829 8 222 0.0 6.4 0.00 0.00 0.00 83 1009.1
20260508113322 8 205 0.0 0.0 0.00 0.00 0.00 83 1009.1
20260508112832 8 205 0.0 1.6 0.00 0.00 0.00 83 1009.1
20260508112322 8 205 0.0 1.6 0.00 0.00 0.00 83 1009.1
20260508111847 7 205 0.0 0.0 0.00 0.00 0.00 83 1008.9
20260508111321 7 205 0.0 0.0 0.00 0.00 0.00 83 1008.9
20260508110829 7 205 0.0 0.0 0.00 0.00 0.00 83 1008.9
20260508110325 7 205 0.0 0.0 0.00 0.00 0.00 83 1008.9
20260508105818 7 205 0.0 0.0 0.00 0.00 0.00 83 1008.9
20260508105328 7 205 0.0 0.0 0.00 0.00 0.00 83 1008.9
20260508104821 7 205 0.0 0.0 0.00 0.00 0.00 83 1008.7
20260508104337 7 205 0.0 0.0 0.00 0.00 0.00 83 1008.7
20260508103824 7 205 0.0 0.0 0.00 0.00 0.00 82 1008.7
20260508103333 7 205 0.0 0.0 0.00 0.00 0.00 82 1008.7
20260508102827 7 205 0.0 0.0 0.00 0.00 0.00 82 1008.7
20260508102322 7 205 0.0 0.0 0.00 0.00 0.00 82 1008.7
20260508101812 7 205 0.0 0.0 0.00 0.00 0.00 82 1008.7
20260508101345 7 205 0.0 0.0 0.00 0.00 0.00 83 1008.7
20260508100845 7 205 0.0 0.0 0.00 0.00 0.00 83 1008.7
20260508100331 7 205 0.0 0.0 0.00 0.00 0.00 83 1008.7
20260508095816 7 205 0.0 0.0 0.00 0.00 0.00 83 1008.7
20260508095327 7 205 0.0 0.0 0.00 0.00 0.00 83 1008.7
20260508094820 7 205 0.0 0.0 0.00 0.00 0.00 83 1008.8
20260508094326 7 205 0.0 0.0 0.00 0.00 0.00 83 1008.8
20260508093821 7 205 0.0 0.0 0.00 0.00 0.00 82 1008.8
20260508093329 7 205 0.0 0.0 0.00 0.00 0.00 82 1008.7
20260508092853 7 205 0.0 0.0 0.00 0.00 0.00 82 1008.7
20260508092340 7 205 0.0 0.0 0.00 0.00 0.00 82 1008.7
20260508091832 7 205 0.0 0.0 0.00 0.00 0.00 82 1008.8
20260508091321 7 205 0.0 3.2 0.00 0.00 0.00 82 1008.8
20260508090823 7 205 0.0 3.2 0.00 0.00 0.00 82 1008.8
20260508090333 7 205 0.0 6.4 0.00 0.00 0.00 82 1008.8
20260508085825 7 205 0.0 8.0 0.00 0.00 0.00 82 1008.8
20260508085316 7 205 1.6 8.0 0.00 0.00 0.00 82 1008.8
20260508084823 7 205 0.0 6.4 0.00 0.00 0.00 82 1008.8
20260508084330 8 205 0.0 6.4 0.00 0.00 0.00 82 1008.8
20260508083821 8 205 1.6 8.0 0.00 0.00 0.00 82 1008.8
20260508083342 8 205 1.6 8.0 0.00 0.00 0.00 82 1008.9
20260508082831 8 206 0.0 3.2 0.00 0.00 0.00 82 1008.9
20260508082324 8 206 0.0 0.0 0.00 0.00 0.00 82 1008.9
20260508081832 8 206 0.0 0.0 0.00 0.00 0.00 82 1009.0
20260508081320 8 206 0.0 0.0 0.00 0.00 0.00 82 1009.0
20260508080826 8 206 0.0 0.0 0.00 0.00 0.00 82 1009.0
20260508080317 8 191 0.0 0.0 0.00 0.00 0.00 82 1009.1
20260508075829 8 191 0.0 0.0 0.00 0.00 0.00 82 1009.1
20260508075318 8 191 0.0 0.0 0.00 0.00 0.00 82 1009.1
20260508074810 8 191 0.0 0.0 0.00 0.00 0.00 82 1009.1
20260508074323 8 191 0.0 0.0 0.00 0.00 0.00 82 1009.1
20260508073816 8 191 0.0 0.0 0.00 0.00 0.00 82 1009.1
20260508073330 7 191 0.0 0.0 0.00 0.00 0.00 82 1009.1
20260508072822 7 191 0.0 0.0 0.00 0.00 0.00 82 1009.1
20260508072324 7 191 0.0 0.0 0.00 0.00 0.00 82 1009.1
20260508071846 7 191 0.0 0.0 0.00 0.00 0.00 82 1009.2
20260508071337 7 191 0.0 0.0 0.00 0.00 0.00 82 1009.2
20260508070831 7 191 0.0 0.0 0.00 0.00 0.00 82 1009.2
20260508070322 7 191 0.0 0.0 0.00 0.00 0.00 81 1009.2
20260508065842 8 191 0.0 0.0 0.00 0.00 0.00 81 1009.2
20260508065335 8 191 0.0 0.0 0.00 0.00 0.00 81 1009.2
20260508064827 8 192 0.0 0.0 0.00 0.00 0.00 81 1009.3
20260508064339 8 192 0.0 0.0 0.00 0.00 0.00 81 1009.3
20260508063827 8 192 0.0 0.0 0.00 0.00 0.00 80 1009.3
20260508063314 8 192 0.0 3.2 0.00 0.00 0.00 80 1009.5
20260508062828 8 192 0.0 8.0 0.00 0.00 0.00 80 1009.5
20260508062325 8 192 1.6 9.7 0.00 0.00 0.00 80 1009.5
20260508061828 8 192 0.0 8.0 0.00 0.00 0.00 80 1009.6
20260508061322 8 192 1.6 9.7 0.00 0.00 0.00 79 1009.6
20260508060858 8 192 3.2 11.3 0.00 0.00 0.00 79 1009.6
20260508060333 8 190 4.8 11.3 0.00 0.00 0.00 79 1009.7
20260508055840 8 190 4.8 16.1 0.00 0.00 0.00 79 1009.7
20260508055332 8 190 3.2 16.1 0.00 0.00 0.00 78 1009.7
20260508054827 8 197 4.8 12.9 0.00 0.00 0.00 78 1009.8
20260508054338 8 201 4.8 12.9 0.00 0.00 0.00 78 1009.8
20260508053849 8 200 1.6 16.1 0.00 0.00 0.00 77 1009.8
20260508053319 8 200 6.4 17.7 0.00 0.00 0.00 77 1009.8
20260508052830 8 215 8.0 17.7 0.00 0.00 0.00 76 1009.8
20260508052320 9 203 6.4 20.9 0.00 0.00 0.00 76 1009.8
20260508051842 9 201 8.0 22.5 0.00 0.00 0.00 75 1009.7
20260508051331 9 219 9.7 22.5 0.00 0.00 0.00 75 1009.7
20260508050824 9 194 4.8 12.9 0.00 0.00 0.00 74 1009.7
20260508050327 9 232 8.0 19.3 0.00 0.00 0.00 73 1009.8
20260508045840 9 241 11.3 19.3 0.00 0.00 0.00 73 1009.8
20260508045332 9 200 8.0 20.9 0.00 0.00 0.00 73 1009.8
20260508044817 9 236 6.4 19.3 0.00 0.00 0.00 72 1009.5
20260508044334 9 199 8.0 14.5 0.00 0.00 0.00 72 1009.5
20260508043822 10 219 4.8 14.5 0.00 0.00 0.00 72 1009.5
20260508043331 10 195 6.4 16.1 0.00 0.00 0.00 72 1009.4
20260508042825 10 202 6.4 29.0 0.00 0.00 0.00 71 1009.4
20260508042331 9 197 8.0 14.5 0.00 0.00 0.00 71 1009.4
20260508041817 9 171 6.4 11.3 0.00 0.00 0.00 72 1009.5
20260508041354 9 163 6.4 11.3 0.00 0.00 0.00 72 1009.5
20260508040820 9 172 4.8 11.3 0.00 0.00 0.00 72 1009.5
20260508040349 9 180 3.2 9.7 0.00 0.00 0.00 72 1009.7
20260508035825 9 180 3.2 9.7 0.00 0.00 0.00 72 1009.7
20260508035314 9 184 1.6 9.7 0.00 0.00 0.00 72 1009.7
20260508034818 9 184 1.6 8.0 0.00 0.00 0.00 72 1009.8
20260508034323 9 184 0.0 6.4 0.00 0.00 0.00 72 1009.8
20260508033813 9 184 0.0 6.4 0.00 0.00 0.00 71 1009.8
20260508033338 9 184 3.2 8.0 0.00 0.00 0.00 71 1009.9
20260508032829 9 184 3.2 8.0 0.00 0.00 0.00 71 1009.9
20260508032322 10 185 0.0 6.4 0.00 0.00 0.00 71 1009.9
20260508031814 10 185 0.0 6.4 0.00 0.00 0.00 71 1010.1
20260508031323 10 185 1.6 9.7 0.00 0.00 0.00 70 1010.1
20260508030840 10 185 1.6 9.7 0.00 0.00 0.00 70 1010.1
20260508030332 10 185 3.2 8.0 0.00 0.00 0.00 70 1010.2
20260508025823 10 185 1.6 8.0 0.00 0.00 0.00 69 1010.2
20260508025335 10 185 3.2 8.0 0.00 0.00 0.00 69 1010.2
20260508024813 10 185 1.6 9.7 0.00 0.00 0.00 69 1010.1
20260508024330 10 185 4.8 9.7 0.00 0.00 0.00 68 1010.1
20260508023826 10 185 1.6 8.0 0.00 0.00 0.00 68 1010.1
20260508023311 10 185 3.2 6.4 0.00 0.00 0.00 67 1010.2
20260508022824 10 200 0.0 8.0 0.00 0.00 0.00 67 1010.2
20260508022317 10 200 1.6 11.3 0.00 0.00 0.00 66 1010.2
20260508021827 10 200 3.2 11.3 0.00 0.00 0.00 66 1010.2
20260508021332 10 192 0.0 14.5 0.00 0.00 0.00 66 1010.2
20260508020820 10 192 1.6 14.5 0.00 0.00 0.00 66 1010.2
20260508020346 10 196 3.2 14.5 0.00 0.00 0.00 66 1010.0
20260508015834 10 196 3.2 14.5 0.00 0.00 0.00 66 1010.0
20260508015322 10 215 3.2 9.7 0.00 0.00 0.00 65 1010.0
20260508014815 10 215 1.6 16.1 0.00 0.00 0.00 65 1010.0
20260508014321 10 216 8.0 17.7 0.00 0.00 0.00 64 1010.0
20260508013818 10 213 9.7 19.3 0.00 0.00 0.00 64 1010.0
20260508013339 10 221 11.3 19.3 0.00 0.00 0.00 64 1009.8
20260508012825 10 228 6.4 17.7 0.00 0.00 0.00 63 1009.8
20260508012337 10 205 9.7 17.7 0.00 0.00 0.00 63 1009.8
20260508011820 10 191 8.0 17.7 0.00 0.00 0.00 62 1009.8
20260508011327 11 219 3.2 22.5 0.00 0.00 0.00 61 1009.8
20260508010830 11 198 9.7 22.5 0.00 0.00 0.00 60 1009.8
20260508010336 11 221 14.5 25.7 0.00 0.00 0.00 59 1009.8
20260508005836 11 219 12.9 29.0 0.00 0.00 0.00 59 1009.8
20260508005339 11 213 16.1 29.0 0.00 0.00 0.00 58 1009.8
20260508004825 11 215 14.5 25.7 0.00 0.00 0.00 57 1009.7
20260508004354 11 214 9.7 33.8 0.00 0.00 0.00 55 1009.7
20260508003819 11 200 16.1 33.8 0.00 0.00 0.00 54 1009.7
20260508003328 12 216 11.3 33.8 0.00 0.00 0.00 53 1009.4
20260508002818 12 229 19.3 37.0 0.00 0.00 0.00 51 1009.4
20260508002336 12 211 20.9 37.0 0.00 0.00 0.00 49 1009.4
20260508001829 12 204 12.9 32.2 0.00 0.00 0.00 48 1009.2
20260508001321 13 207 16.1 32.2 0.00 0.00 0.00 46 1009.2
20260508000850 13 235 12.9 25.7 0.00 0.00 0.00 45 1009.2
20260508000314 13 225 11.3 25.7 0.00 0.00 0.00 44 1009.2
20260507235826 13 236 14.5 24.1 0.00 0.00 0.00 43 1009.2
20260507235320 13 238 14.5 24.1 0.00 0.00 0.00 42 1009.2
20260507234904 13 227 6.4 20.9 0.00 0.00 0.00 43 1009.2
20260507234334 13 244 14.5 24.1 0.00 0.00 0.00 42 1009.2
20260507233822 13 219 16.1 24.1 0.00 0.00 0.00 41 1009.2
20260507233332 13 255 16.1 25.7 0.00 0.00 0.00 41 1009.2
20260507232820 13 274 14.5 25.7 0.00 0.00 0.00 41 1009.2
20260507232333 13 246 16.1 24.1 0.00 0.00 0.00 40 1009.2
20260507231844 13 244 11.3 24.1 0.00 0.00 0.00 40 1009.2
20260507231314 13 215 14.5 24.1 0.00 0.00 0.00 40 1009.2
20260507230823 14 241 16.1 32.2 0.00 0.00 0.00 39 1009.2
20260507230331 14 255 8.0 24.1 0.00 0.00 0.00 39 1009.1
20260507225817 14 246 16.1 24.1 0.00 0.00 0.00 39 1009.1
20260507225339 14 260 12.9 24.1 0.00 0.00 0.00 39 1009.1
20260507224823 13 246 16.1 24.1 0.00 0.00 0.00 39 1009.2
20260507224344 13 268 6.4 24.1 0.00 0.00 0.00 40 1009.2
20260507223839 13 251 14.5 24.1 0.00 0.00 0.00 38 1009.2
20260507223319 13 258 12.9 22.5 0.00 0.00 0.00 39 1009.3
20260507222828 13 227 11.3 22.5 0.00 0.00 0.00 38 1009.3
20260507222313 14 254 14.5 22.5 0.00 0.00 0.00 38 1009.3
20260507221838 14 281 11.3 19.3 0.00 0.00 0.00 39 1009.2
20260507221326 15 263 9.7 20.9 0.00 0.00 0.00 37 1009.2
20260507220837 15 288 8.0 20.9 0.00 0.00 0.00 38 1009.2
20260507220323 15 257 1.6 16.1 0.00 0.00 0.00 38 1009.2
20260507215903 15 263 8.0 25.7 0.00 0.00 0.00 38 1009.2
20260507215347 15 286 11.3 25.7 0.00 0.00 0.00 38 1009.2
20260507214813 15 263 9.7 25.7 0.00 0.00 0.00 38 1009.2
20260507214345 15 251 16.1 32.2 0.00 0.00 0.00 37 1009.2
20260507213814 15 264 17.7 32.2 0.00 0.00 0.00 36 1009.2
20260507213337 15 254 3.2 22.5 0.00 0.00 0.00 40 1009.1
20260507212841 15 259 14.5 25.7 0.00 0.00 0.00 37 1009.1
20260507212332 15 298 12.9 29.0 0.00 0.00 0.00 37 1009.1
20260507211821 15 279 11.3 29.0 0.00 0.00 0.00 39 1009.2
20260507211324 15 264 4.8 29.0 0.00 0.00 0.00 39 1009.2
20260507210901 15 262 4.8 20.9 0.00 0.00 0.00 41 1009.2
20260507210329 15 301 8.0 22.5 0.00 0.00 0.00 39 1009.4
20260507205841 15 249 6.4 22.5 0.00 0.00 0.00 41 1009.4
20260507205322 14 281 9.7 17.7 0.00 0.00 0.00 41 1009.4
20260507204831 14 251 8.0 22.5 0.00 0.00 0.00 42 1009.4
20260507204317 13 258 12.9 32.2 0.00 0.00 0.00 40 1009.4
20260507203828 13 262 16.1 32.2 0.00 0.00 0.00 42 1009.4
20260507203339 13 250 8.0 32.2 0.00 0.00 0.00 40 1009.6
20260507202830 13 257 12.9 32.2 0.00 0.00 0.00 41 1009.6
20260507202355 13 290 11.3 25.7 0.00 0.00 0.00 42 1009.6
20260507201841 13 256 8.0 19.3 0.00 0.00 0.00 43 1009.8
20260507201334 13 255 12.9 25.7 0.00 0.00 0.00 43 1009.8
20260507200830 13 263 11.3 25.7 0.00 0.00 0.00 44 1009.8
20260507200323 13 265 11.3 29.0 0.00 0.00 0.00 43 1009.8
20260507195850 13 262 11.3 29.0 0.00 0.00 0.00 43 1009.8